Time,TemperatureF,DewpointF,PressureIn,WindDirection,WindDirectionDegrees,WindSpeedMPH,WindSpeedGustMPH,Humidity,HourlyPrecipIn,Conditions,Clouds,dailyrainin,SoftwareType,DateUTC
2013-06-02 00:04:00,66.7,63.7,30.02,SSE,158,1.0,1.0,90,0.00,,SCT080,0.00,VWS V14.01,2013-06-02 04:04:00,
2013-06-02 00:09:00,66.9,63.9,30.02,SSE,150,0.0,0.0,90,0.00,,SCT080,0.00,VWS V14.01,2013-06-02 04:09:00,
2013-06-02 00:14:00,67.2,64.2,30.02,SSE,151,0.0,0.0,90,0.00,,SCT080,0.00,VWS V14.01,2013-06-02 04:14:00,
2013-06-02 00:19:00,67.2,63.8,30.02,SSE,151,0.0,0.0,89,0.00,,BKN090,0.00,VWS V14.01,2013-06-02 04:19:00,
2013-06-02 00:24:00,67.2,63.8,30.01,SSE,148,0.0,0.0,89,0.00,,BKN090,0.00,VWS V14.01,2013-06-02 04:24:00,
2013-06-02 00:29:00,67.0,63.7,30.01,SSE,148,0.0,0.0,89,0.00,,BKN090,0.00,VWS V14.01,2013-06-02 04:29:00,
2013-06-02 00:34:00,66.9,63.9,30.01,SSE,148,0.0,0.0,90,0.00,,BKN090,0.00,VWS V14.01,2013-06-02 04:34:00,
2013-06-02 00:39:00,67.0,64.0,30.01,SSE,149,0.0,0.0,90,0.00,,SCT090,0.00,VWS V14.01,2013-06-02 04:39:00,
2013-06-02 00:44:00,67.0,64.0,30.01,SE,134,0.0,0.0,90,0.00,,SCT090,0.00,VWS V14.01,2013-06-02 04:44:00,
2013-06-02 00:49:00,66.9,63.9,30.01,SE,134,0.0,0.0,90,0.00,,SCT090,0.00,VWS V14.01,2013-06-02 04:49:00,
2013-06-02 00:54:00,66.8,64.1,30.01,SE,134,0.0,0.0,91,0.00,,SCT090,0.00,VWS V14.01,2013-06-02 04:54:00,
2013-06-02 00:59:00,66.8,64.1,30.01,SE,134,0.0,0.0,91,0.00,,BKN090,0.00,VWS V14.01,2013-06-02 04:59:00,
2013-06-02 01:04:00,66.9,64.2,30.01,SE,127,0.0,1.0,91,0.00,,BKN090,0.00,VWS V14.01,2013-06-02 05:04:00,
2013-06-02 01:14:00,67.3,64.3,30.01,SW,225,0.0,0.0,90,0.00,,BKN090,0.00,VWS V14.01,2013-06-02 05:14:00,
2013-06-02 01:19:00,67.8,64.4,30.01,WNW,284,0.0,1.0,89,0.00,,BKN090,0.00,VWS V14.01,2013-06-02 05:19:00,
2013-06-02 01:24:00,68.0,64.6,30.00,WNW,283,1.0,1.0,89,0.00,,OVC090,0.00,VWS V14.01,2013-06-02 05:24:00,
2013-06-02 01:29:00,68.1,64.7,29.98,WNW,293,0.0,1.0,89,0.00,,OVC090,0.00,VWS V14.01,2013-06-02 05:29:00,
2013-06-02 01:34:00,68.2,64.8,29.97,SSE,165,0.0,0.0,89,0.00,,OVC090,0.00,VWS V14.01,2013-06-02 05:34:00,
2013-06-02 01:39:00,69.2,65.2,29.97,West,262,2.0,2.0,87,0.00,,OVC090,0.00,VWS V14.01,2013-06-02 05:39:00,
2013-06-02 01:44:00,70.5,65.4,29.97,WSW,241,3.0,3.0,84,0.00,,OVC090,0.00,VWS V14.01,2013-06-02 05:44:00,
2013-06-02 01:49:00,71.1,65.7,29.96,NNW,333,0.0,1.0,83,0.00,,OVC090,0.00,VWS V14.01,2013-06-02 05:49:00,
2013-06-02 01:54:00,71.4,65.6,29.96,WSW,250,1.0,2.0,82,0.00,,OVC090,0.00,VWS V14.01,2013-06-02 05:54:00,
2013-06-02 01:59:00,71.5,65.7,29.95,SW,232,0.0,4.0,82,0.00,,OVC090,0.00,VWS V14.01,2013-06-02 05:59:00,
2013-06-02 02:04:00,71.7,65.6,29.94,ESE,118,1.0,1.0,81,0.00,,OVC070,0.00,VWS V14.01,2013-06-02 06:04:00,
2013-06-02 02:09:00,71.8,65.7,29.93,SE,142,2.0,2.0,81,0.00,,OVC070,0.00,VWS V14.01,2013-06-02 06:09:00,
2013-06-02 02:14:00,72.1,65.9,29.92,SSE,155,2.0,6.0,81,0.00,,OVC070,0.00,VWS V14.01,2013-06-02 06:14:00,
2013-06-02 02:19:00,72.3,65.8,29.92,SW,215,2.0,4.0,80,0.00,,OVC070,0.00,VWS V14.01,2013-06-02 06:19:00,
2013-06-02 02:24:00,72.3,65.8,30.06,East,92,0.0,3.0,80,0.00,,SCT120,0.00,VWS V14.01,2013-06-02 06:24:00,
2013-06-02 02:29:00,72.4,65.9,30.07,WSW,256,4.0,6.0,80,0.00,,SCT120,0.00,VWS V14.01,2013-06-02 06:29:00,
2013-06-02 02:34:00,72.2,65.7,30.06,WSW,250,3.0,4.0,80,0.00,,SCT120,0.00,VWS V14.01,2013-06-02 06:34:00,
2013-06-02 02:38:00,72.0,65.9,30.06,SSW,210,1.0,4.0,81,0.00,,SCT120,0.00,VWS V14.01,2013-06-02 06:38:00,
2013-06-02 02:44:00,71.9,65.8,30.06,SSW,212,1.0,2.0,81,0.00,,CLR,0.00,VWS V14.01,2013-06-02 06:44:00,
2013-06-02 02:48:00,71.8,65.7,30.06,SE,136,0.0,2.0,81,0.00,,CLR,0.00,VWS V14.01,2013-06-02 06:48:00,
2013-06-02 02:54:00,71.7,65.6,30.06,WSW,246,3.0,3.0,81,0.00,,CLR,0.00,VWS V14.01,2013-06-02 06:54:00,
2013-06-02 02:59:00,72.0,65.5,30.07,South,189,1.0,2.0,80,0.00,,CLR,0.00,VWS V14.01,2013-06-02 06:59:00,
2013-06-02 03:04:00,72.3,65.4,30.07,SW,227,1.0,5.0,79,0.00,,BKN055,0.00,VWS V14.01,2013-06-02 07:04:00,
2013-06-02 03:09:00,72.5,65.3,30.07,SSW,212,3.0,6.0,78,0.00,,BKN055,0.00,VWS V14.01,2013-06-02 07:09:00,
2013-06-02 03:14:00,72.7,65.4,30.06,WSW,240,1.0,3.0,78,0.00,,BKN055,0.00,VWS V14.01,2013-06-02 07:14:00,
2013-06-02 03:19:00,72.8,65.6,30.06,SW,218,0.0,3.0,78,0.00,,BKN055,0.00,VWS V14.01,2013-06-02 07:19:00,
2013-06-02 03:24:00,72.7,65.4,30.06,WNW,294,1.0,8.0,78,0.00,,OVC065,0.00,VWS V14.01,2013-06-02 07:24:00,
2013-06-02 03:29:00,72.7,65.1,30.06,North,8,1.0,3.0,77,0.00,,OVC065,0.00,VWS V14.01,2013-06-02 07:29:00,
2013-06-02 03:34:00,72.7,65.1,30.06,SSW,201,1.0,3.0,77,0.00,,OVC065,0.00,VWS V14.01,2013-06-02 07:34:00,
2013-06-02 03:39:00,72.6,65.0,30.06,SW,233,6.0,6.0,77,0.00,,OVC065,0.00,VWS V14.01,2013-06-02 07:39:00,
2013-06-02 03:44:00,72.6,65.0,30.06,SW,226,1.0,6.0,77,0.00,,OVC065,0.00,VWS V14.01,2013-06-02 07:44:00,
2013-06-02 03:49:00,72.5,64.9,30.05,West,267,1.0,3.0,77,0.00,,OVC065,0.00,VWS V14.01,2013-06-02 07:49:00,
2013-06-02 03:54:00,72.4,64.8,30.05,SW,226,1.0,3.0,77,0.00,,OVC065,0.00,VWS V14.01,2013-06-02 07:54:00,
2013-06-02 03:59:00,72.2,65.0,30.05,SW,221,1.0,1.0,78,0.00,,OVC065,0.00,VWS V14.01,2013-06-02 07:59:00,
2013-06-02 04:03:00,72.1,64.9,30.05,WSW,250,5.0,7.0,78,0.00,,SCT075,0.00,VWS V14.01,2013-06-02 08:03:00,
2013-06-02 04:08:00,72.0,64.8,30.05,WSW,246,1.0,4.0,78,0.00,,SCT075,0.00,VWS V14.01,2013-06-02 08:08:00,
2013-06-02 04:13:00,71.9,64.7,30.05,SSE,167,0.0,1.0,78,0.00,,SCT075,0.00,VWS V14.01,2013-06-02 08:13:00,
2013-06-02 04:18:00,71.7,64.8,30.05,West,264,2.0,5.0,79,0.00,,CLR,0.00,VWS V14.01,2013-06-02 08:18:00,
2013-06-02 04:24:00,71.7,64.8,30.05,SW,222,0.0,3.0,79,0.00,,CLR,0.00,VWS V14.01,2013-06-02 08:24:00,
2013-06-02 04:29:00,71.7,64.8,30.05,SW,234,1.0,5.0,79,0.00,,CLR,0.00,VWS V14.01,2013-06-02 08:29:00,
2013-06-02 04:34:00,71.6,64.8,30.05,SW,217,2.0,4.0,79,0.00,,CLR,0.00,VWS V14.01,2013-06-02 08:34:00,
2013-06-02 04:38:00,71.6,64.8,30.05,SW,227,2.0,9.0,79,0.00,,CLR,0.00,VWS V14.01,2013-06-02 08:38:00,
2013-06-02 04:44:00,71.6,64.8,30.05,SSW,212,0.0,3.0,79,0.00,,CLR,0.00,VWS V14.01,2013-06-02 08:44:00,
2013-06-02 04:49:00,71.4,64.9,30.05,SW,215,0.0,0.0,80,0.00,,CLR,0.00,VWS V14.01,2013-06-02 08:49:00,
2013-06-02 04:54:00,71.1,64.6,30.04,South,169,0.0,0.0,80,0.00,,CLR,0.00,VWS V14.01,2013-06-02 08:54:00,
2013-06-02 04:59:00,70.9,64.8,30.04,SSW,200,0.0,0.0,81,0.00,,CLR,0.00,VWS V14.01,2013-06-02 08:59:00,
2013-06-02 05:04:00,70.7,64.6,30.04,SW,232,0.0,1.0,81,0.00,,CLR,0.00,VWS V14.01,2013-06-02 09:04:00,
2013-06-02 05:09:00,70.6,64.5,30.05,SW,229,0.0,0.0,81,0.00,,CLR,0.00,VWS V14.01,2013-06-02 09:09:00,
2013-06-02 05:14:00,70.5,64.4,30.05,SW,233,0.0,2.0,81,0.00,,CLR,0.00,VWS V14.01,2013-06-02 09:14:00,
2013-06-02 05:19:00,70.5,64.4,30.05,SW,232,0.0,1.0,81,0.00,,CLR,0.00,VWS V14.01,2013-06-02 09:19:00,
2013-06-02 05:24:00,70.5,64.8,30.04,SW,235,1.0,1.0,82,0.00,,CLR,0.00,VWS V14.01,2013-06-02 09:24:00,
2013-06-02 05:29:00,70.4,64.7,30.04,SW,232,0.0,0.0,82,0.00,,CLR,0.00,VWS V14.01,2013-06-02 09:29:00,
2013-06-02 05:34:00,70.2,64.8,30.04,SW,233,0.0,0.0,83,0.00,,CLR,0.00,VWS V14.01,2013-06-02 09:34:00,
2013-06-02 05:39:00,69.9,64.5,30.04,SW,233,0.0,0.0,83,0.00,,CLR,0.00,VWS V14.01,2013-06-02 09:39:00,
2013-06-02 05:44:00,69.5,64.5,30.04,NE,38,0.0,0.0,84,0.00,,CLR,0.00,VWS V14.01,2013-06-02 09:44:00,
2013-06-02 05:49:00,69.2,64.5,30.04,NE,38,0.0,0.0,85,0.00,,CLR,0.00,VWS V14.01,2013-06-02 09:49:00,
2013-06-02 05:54:00,68.9,64.2,30.04,SSE,165,0.0,1.0,85,0.00,,CLR,0.00,VWS V14.01,2013-06-02 09:54:00,
2013-06-02 05:59:00,68.9,64.6,30.04,SSE,165,0.0,0.0,86,0.00,,CLR,0.00,VWS V14.01,2013-06-02 09:59:00,
2013-06-02 06:04:00,68.8,64.4,30.05,SSE,165,0.0,0.0,86,0.00,,CLR,0.00,VWS V14.01,2013-06-02 10:04:00,
2013-06-02 06:09:00,68.8,64.4,30.05,SSE,165,0.0,0.0,86,0.00,,CLR,0.00,VWS V14.01,2013-06-02 10:09:00,
2013-06-02 06:14:00,68.8,64.4,30.05,SSE,165,0.0,0.0,86,0.00,,CLR,0.00,VWS V14.01,2013-06-02 10:14:00,
2013-06-02 06:19:00,68.6,64.6,30.05,SSE,165,0.0,0.0,87,0.00,,CLR,0.00,VWS V14.01,2013-06-02 10:19:00,
2013-06-02 06:24:00,68.3,64.3,30.05,SSE,163,0.0,0.0,87,0.00,,CLR,0.00,VWS V14.01,2013-06-02 10:24:00,
2013-06-02 06:29:00,68.3,64.3,30.05,NNE,13,0.0,0.0,87,0.00,,CLR,0.00,VWS V14.01,2013-06-02 10:29:00,
2013-06-02 06:34:00,68.1,64.4,30.05,NNE,13,0.0,0.0,88,0.00,,CLR,0.00,VWS V14.01,2013-06-02 10:34:00,
2013-06-02 06:39:00,68.1,64.4,30.05,NNE,25,0.0,0.0,88,0.00,,CLR,0.00,VWS V14.01,2013-06-02 10:39:00,
2013-06-02 06:44:00,68.0,64.3,30.05,NNE,25,0.0,0.0,88,0.00,,CLR,0.00,VWS V14.01,2013-06-02 10:44:00,
2013-06-02 06:49:00,67.9,64.2,30.05,NNE,25,0.0,0.0,88,0.00,,CLR,0.00,VWS V14.01,2013-06-02 10:49:00,
2013-06-02 06:54:00,68.0,64.3,30.05,NNE,25,0.0,0.0,88,0.00,,CLR,0.00,VWS V14.01,2013-06-02 10:54:00,
2013-06-02 06:59:00,68.0,64.3,30.05,NNE,25,0.0,0.0,88,0.00,,SCT085,0.00,VWS V14.01,2013-06-02 10:59:00,
2013-06-02 07:04:00,68.1,64.7,30.05,SSE,151,1.0,1.0,89,0.00,,SCT085,0.00,VWS V14.01,2013-06-02 11:04:00,
2013-06-02 07:09:00,68.2,64.5,30.05,NNE,30,0.0,1.0,88,0.00,,SCT085,0.00,VWS V14.01,2013-06-02 11:09:00,
2013-06-02 07:14:00,68.6,64.2,30.05,SSW,200,0.0,1.0,86,0.00,,SCT085,0.00,VWS V14.01,2013-06-02 11:14:00,
2013-06-02 07:19:00,69.4,64.4,30.05,SW,221,0.0,0.0,84,0.00,,BKN085,0.00,VWS V14.01,2013-06-02 11:19:00,
2013-06-02 07:24:00,70.3,64.9,30.05,WNW,295,0.0,1.0,83,0.00,,BKN085,0.00,VWS V14.01,2013-06-02 11:24:00,
2013-06-02 07:29:00,70.9,64.4,30.05,SW,229,0.0,1.0,80,0.00,,BKN085,0.00,VWS V14.01,2013-06-02 11:29:00,
2013-06-02 07:34:00,71.3,64.8,30.05,SW,229,0.0,0.0,80,0.00,,BKN085,0.00,VWS V14.01,2013-06-02 11:34:00,
2013-06-02 07:39:00,71.6,65.1,30.05,SW,229,0.0,1.0,80,0.00,,OVC085,0.00,VWS V14.01,2013-06-02 11:39:00,
2013-06-02 07:44:00,71.8,64.9,30.05,SW,222,0.0,1.0,79,0.00,,OVC085,0.00,VWS V14.01,2013-06-02 11:44:00,
2013-06-02 07:49:00,72.1,64.9,30.04,SW,222,0.0,0.0,78,0.00,,OVC085,0.00,VWS V14.01,2013-06-02 11:49:00,
2013-06-02 07:54:00,72.4,64.8,30.04,WSW,242,0.0,1.0,77,0.00,,OVC085,0.00,VWS V14.01,2013-06-02 11:54:00,
2013-06-02 07:59:00,72.6,66.1,30.04,NE,36,0.0,1.0,80,0.00,,SCT085,0.00,VWS V14.01,2013-06-02 11:59:00,
2013-06-02 08:04:00,72.6,66.1,30.04,NE,35,0.0,1.0,80,0.00,,SCT085,0.00,VWS V14.01,2013-06-02 12:04:00,
2013-06-02 08:09:00,72.9,65.3,30.05,SSE,160,0.0,1.0,77,0.00,,SCT085,0.00,VWS V14.01,2013-06-02 12:09:00,
2013-06-02 08:14:00,73.2,65.6,30.05,WSW,239,1.0,1.0,77,0.00,,SCT085,0.00,VWS V14.01,2013-06-02 12:14:00,
2013-06-02 08:19:00,73.3,64.9,30.05,WSW,241,2.0,5.0,75,0.00,,SCT085,0.00,VWS V14.01,2013-06-02 12:19:00,
2013-06-02 08:24:00,73.3,65.3,30.05,SW,229,1.0,1.0,76,0.00,,CLR,0.00,VWS V14.01,2013-06-02 12:24:00,
2013-06-02 08:29:00,73.2,65.2,30.04,SSE,163,2.0,4.0,76,0.00,,CLR,0.00,VWS V14.01,2013-06-02 12:29:00,
2013-06-02 08:34:00,73.1,65.1,30.04,WSW,249,3.0,3.0,76,0.00,,CLR,0.00,VWS V14.01,2013-06-02 12:34:00,
2013-06-02 08:39:00,73.1,65.1,30.04,WSW,238,6.0,6.0,76,0.00,,SCT120,0.00,VWS V14.01,2013-06-02 12:39:00,
2013-06-02 08:44:00,72.9,64.9,30.04,SW,229,3.0,5.0,76,0.00,,SCT120,0.00,VWS V14.01,2013-06-02 12:44:00,
2013-06-02 08:49:00,72.9,65.3,30.04,SW,221,2.0,3.0,77,0.00,,SCT120,0.00,VWS V14.01,2013-06-02 12:49:00,
2013-06-02 08:54:00,72.9,66.0,30.04,WNW,294,0.0,1.0,79,0.00,,SCT120,0.00,VWS V14.01,2013-06-02 12:54:00,
2013-06-02 08:59:00,72.9,66.0,30.04,SW,233,1.0,5.0,79,0.00,,-RA,0.00,VWS V14.01,2013-06-02 12:59:00,
2013-06-02 09:04:00,72.8,66.3,30.04,NW,305,0.0,3.0,80,0.00,,-RA,0.00,VWS V14.01,2013-06-02 13:04:00,
2013-06-02 09:09:00,72.7,66.5,30.04,SW,233,0.0,0.0,81,0.00,,-RA,0.00,VWS V14.01,2013-06-02 13:09:00,
2013-06-02 09:14:00,72.7,66.9,30.04,SW,233,0.0,0.0,82,0.00,,-RA,0.00,VWS V14.01,2013-06-02 13:14:00,
2013-06-02 09:19:00,72.7,66.9,30.04,SW,231,0.0,0.0,82,0.00,,-RA,0.00,VWS V14.01,2013-06-02 13:19:00,
2013-06-02 09:24:00,72.8,66.6,30.03,NNW,340,0.0,1.0,81,0.00,,CLR,0.00,VWS V14.01,2013-06-02 13:24:00,
2013-06-02 09:29:00,72.8,66.6,30.03,SW,214,0.0,0.0,81,0.00,,CLR,0.00,VWS V14.01,2013-06-02 13:29:00,
2013-06-02 09:34:00,73.0,66.8,30.03,SW,215,0.0,0.0,81,0.00,,CLR,0.00,VWS V14.01,2013-06-02 13:34:00,
2013-06-02 09:39:00,73.3,66.8,30.03,SW,229,0.0,0.0,80,0.00,,SCT120,0.00,VWS V14.01,2013-06-02 13:39:00,
2013-06-02 09:44:00,73.8,67.2,30.03,SW,229,1.0,1.0,80,0.00,,SCT120,0.00,VWS V14.01,2013-06-02 13:44:00,
2013-06-02 09:49:00,74.6,67.3,30.03,SW,232,0.0,0.0,78,0.00,,SCT120,0.00,VWS V14.01,2013-06-02 13:49:00,
2013-06-02 09:54:00,75.1,67.4,30.03,SW,229,0.0,0.0,77,0.00,,SCT120,0.00,VWS V14.01,2013-06-02 13:54:00,
2013-06-02 09:59:00,75.7,66.8,30.03,SSW,210,1.0,1.0,74,0.00,,SCT120,0.00,VWS V14.01,2013-06-02 13:59:00,
2013-06-02 10:04:00,75.7,66.8,30.03,SW,229,1.0,1.0,74,0.00,,SCT120,0.00,VWS V14.01,2013-06-02 14:04:00,
2013-06-02 10:09:00,75.7,68.0,30.03,NW,305,0.0,1.0,77,0.00,,SCT120,0.00,VWS V14.01,2013-06-02 14:09:00,
2013-06-02 10:14:00,75.9,67.0,30.03,SW,218,0.0,1.0,74,0.00,,SCT120,0.00,VWS V14.01,2013-06-02 14:14:00,
2013-06-02 10:18:00,75.9,67.0,30.03,WSW,238,0.0,1.0,74,0.00,,SCT120,0.00,VWS V14.01,2013-06-02 14:18:00,
2013-06-02 10:24:00,76.1,68.0,30.03,SE,128,0.0,0.0,76,0.00,,BKN120,0.00,VWS V14.01,2013-06-02 14:24:00,
2013-06-02 10:29:00,75.9,67.4,30.03,SW,222,1.0,1.0,75,0.00,,BKN120,0.00,VWS V14.01,2013-06-02 14:29:00,
2013-06-02 10:34:00,76.0,67.9,30.03,WNW,288,2.0,2.0,76,0.00,,BKN120,0.00,VWS V14.01,2013-06-02 14:34:00,
2013-06-02 10:39:00,75.6,67.5,30.04,SW,232,1.0,4.0,76,0.00,,SCT120,0.00,VWS V14.01,2013-06-02 14:39:00,
2013-06-02 10:44:00,75.4,67.7,30.04,SW,227,0.0,1.0,77,0.00,,SCT120,0.00,VWS V14.01,2013-06-02 14:44:00,
2013-06-02 10:48:00,75.6,67.5,30.04,SW,233,1.0,3.0,76,0.00,,SCT120,0.00,VWS V14.01,2013-06-02 14:48:00,
2013-06-02 10:53:00,75.2,67.5,30.04,SW,229,0.0,0.0,77,0.00,,SCT120,0.00,VWS V14.01,2013-06-02 14:53:00,
2013-06-02 10:58:00,75.4,67.7,30.04,SW,229,1.0,1.0,77,0.00,,SCT120,0.00,VWS V14.01,2013-06-02 14:58:00,
2013-06-02 11:03:00,75.5,67.8,30.04,WSW,256,0.0,1.0,77,0.00,,-RA,0.00,VWS V14.01,2013-06-02 15:03:00,
2013-06-02 11:08:00,75.4,67.7,30.04,NW,311,0.0,1.0,77,0.00,,-RA,0.00,VWS V14.01,2013-06-02 15:08:00,
2013-06-02 11:14:00,75.5,68.2,30.05,NW,310,0.0,0.0,78,0.00,,-RA,0.00,VWS V14.01,2013-06-02 15:14:00,
2013-06-02 11:19:00,75.8,67.7,30.05,SW,227,0.0,2.0,76,0.00,,-RA,0.00,VWS V14.01,2013-06-02 15:19:00,
2013-06-02 11:24:00,76.0,68.7,30.05,SW,227,1.0,1.0,78,0.00,,-RA,0.00,VWS V14.01,2013-06-02 15:24:00,
2013-06-02 11:29:00,75.9,68.2,30.05,WNW,295,0.0,0.0,77,0.00,,-RA,0.00,VWS V14.01,2013-06-02 15:29:00,
2013-06-02 11:33:00,76.3,68.2,30.05,West,262,1.0,1.0,76,0.00,,-RA,0.00,VWS V14.01,2013-06-02 15:33:00,
2013-06-02 11:39:00,76.6,68.5,30.05,WSW,245,0.0,0.0,76,0.00,,-RA,0.00,VWS V14.01,2013-06-02 15:39:00,
2013-06-02 11:44:00,76.9,68.4,30.05,SW,236,1.0,1.0,75,0.00,,BKN110,0.00,VWS V14.01,2013-06-02 15:44:00,
2013-06-02 11:48:00,77.3,69.2,30.04,SW,235,0.0,0.0,76,0.00,,BKN110,0.00,VWS V14.01,2013-06-02 15:48:00,
2013-06-02 11:53:00,77.7,68.0,30.04,SW,229,0.0,1.0,72,0.00,,BKN110,0.00,VWS V14.01,2013-06-02 15:53:00,
2013-06-02 11:59:00,78.3,68.1,30.04,SW,231,0.0,1.0,71,0.00,,BKN110,0.00,VWS V14.01,2013-06-02 15:59:00,
2013-06-02 12:04:00,78.5,68.7,30.04,WSW,240,2.0,2.0,72,0.00,,BKN110,0.00,VWS V14.01,2013-06-02 16:04:00,
2013-06-02 12:09:00,78.4,68.6,30.04,SW,227,0.0,1.0,72,0.00,,BKN110,0.00,VWS V14.01,2013-06-02 16:09:00,
2013-06-02 12:14:00,79.2,69.4,30.05,SW,229,0.0,1.0,72,0.00,,BKN110,0.00,VWS V14.01,2013-06-02 16:14:00,
2013-06-02 12:19:00,79.6,69.4,30.05,SW,229,0.0,1.0,71,0.00,,SCT110,0.00,VWS V14.01,2013-06-02 16:19:00,
2013-06-02 12:24:00,79.0,70.8,30.05,WNW,302,1.0,2.0,76,0.00,,SCT110,0.00,VWS V14.01,2013-06-02 16:24:00,
2013-06-02 12:29:00,78.6,68.8,30.05,NNW,346,1.0,1.0,72,0.00,,SCT110,0.00,VWS V14.01,2013-06-02 16:29:00,
2013-06-02 12:34:00,78.0,68.2,30.04,WNW,300,0.0,1.0,72,0.00,,SCT110,0.00,VWS V14.01,2013-06-02 16:34:00,
2013-06-02 12:39:00,77.9,68.9,30.04,NE,50,0.0,1.0,74,0.00,,SCT031,0.00,VWS V14.01,2013-06-02 16:39:00,
2013-06-02 12:44:00,78.5,69.5,30.04,SW,232,0.0,1.0,74,0.00,,SCT031,0.00,VWS V14.01,2013-06-02 16:44:00,
2013-06-02 12:49:00,79.1,69.3,30.04,NW,312,1.0,2.0,72,0.00,,SCT031,0.00,VWS V14.01,2013-06-02 16:49:00,
2013-06-02 12:54:00,78.2,69.6,30.04,WNW,293,0.0,0.0,75,0.00,,SCT031,0.00,VWS V14.01,2013-06-02 16:54:00,
2013-06-02 12:59:00,78.1,69.1,30.04,East,84,2.0,2.0,74,0.00,,SCT120,0.00,VWS V14.01,2013-06-02 16:59:00,
2013-06-02 13:04:00,78.1,69.5,30.04,NW,321,2.0,2.0,75,0.00,,SCT120,0.00,VWS V14.01,2013-06-02 17:04:00,
2013-06-02 13:09:00,78.5,70.3,30.04,NE,38,0.0,1.0,76,0.00,,SCT120,0.00,VWS V14.01,2013-06-02 17:09:00,
2013-06-02 13:14:00,78.1,69.5,30.04,North,3,2.0,2.0,75,0.00,,SCT120,0.00,VWS V14.01,2013-06-02 17:14:00,
2013-06-02 13:19:00,77.6,69.4,30.03,NE,39,2.0,2.0,76,0.00,,SCT120,0.00,VWS V14.01,2013-06-02 17:19:00,
2013-06-02 13:23:00,77.5,69.3,30.03,NNE,16,1.0,1.0,76,0.00,,CLR,0.00,VWS V14.01,2013-06-02 17:23:00,
2013-06-02 13:28:00,77.3,69.5,30.03,NW,314,0.0,3.0,77,0.00,,CLR,0.00,VWS V14.01,2013-06-02 17:28:00,
2013-06-02 13:33:00,77.3,69.5,30.03,NNW,330,3.0,3.0,77,0.00,,CLR,0.00,VWS V14.01,2013-06-02 17:33:00,
2013-06-02 13:38:00,76.9,69.2,30.03,NW,311,1.0,3.0,77,0.00,,CLR,0.00,VWS V14.01,2013-06-02 17:38:00,
2013-06-02 13:43:00,76.4,69.8,30.03,WNW,294,1.0,1.0,80,0.00,,BKN029,0.00,VWS V14.01,2013-06-02 17:43:00,
2013-06-02 13:48:00,76.1,69.5,30.03,NNW,342,2.0,2.0,80,0.00,,BKN029,0.00,VWS V14.01,2013-06-02 17:48:00,
2013-06-02 13:53:00,75.7,69.8,30.03,SSW,210,0.0,0.0,82,0.00,,BKN029,0.00,VWS V14.01,2013-06-02 17:53:00,
2013-06-02 13:58:00,75.6,69.0,30.03,WNW,290,3.0,4.0,80,0.00,,BKN029,0.00,VWS V14.01,2013-06-02 17:58:00,
2013-06-02 14:03:00,75.3,69.4,30.03,NNW,336,1.0,1.0,82,0.00,,OVC029,0.00,VWS V14.01,2013-06-02 18:03:00,
2013-06-02 14:08:00,75.7,69.8,30.03,NW,311,4.0,4.0,82,0.00,,OVC029,0.00,VWS V14.01,2013-06-02 18:08:00,
2013-06-02 14:13:00,75.9,69.7,30.03,NNW,330,0.0,2.0,81,0.00,,OVC029,0.00,VWS V14.01,2013-06-02 18:13:00,
2013-06-02 14:18:00,76.1,69.5,30.03,WNW,300,0.0,3.0,80,0.00,,OVC029,0.00,VWS V14.01,2013-06-02 18:18:00,
2013-06-02 14:23:00,75.9,70.0,30.02,NNW,339,2.0,2.0,82,0.00,,BKN075,0.00,VWS V14.01,2013-06-02 18:23:00,
2013-06-02 14:28:00,76.0,69.8,30.02,NE,38,0.0,1.0,81,0.00,,BKN075,0.00,VWS V14.01,2013-06-02 18:28:00,
2013-06-02 14:33:00,76.3,69.7,30.02,NW,305,2.0,2.0,80,0.00,,BKN075,0.00,VWS V14.01,2013-06-02 18:33:00,
2013-06-02 14:38:00,76.2,69.9,30.01,NNW,328,1.0,2.0,81,0.00,,OVC075,0.00,VWS V14.01,2013-06-02 18:38:00,
2013-06-02 14:43:00,76.3,70.4,30.01,NNE,12,1.0,2.0,82,0.00,,OVC075,0.00,VWS V14.01,2013-06-02 18:43:00,
2013-06-02 14:48:00,76.2,70.3,30.01,NE,50,0.0,2.0,82,0.00,,OVC075,0.00,VWS V14.01,2013-06-02 18:48:00,
2013-06-02 14:53:00,76.2,69.9,30.01,NNE,33,0.0,1.0,81,0.00,,OVC075,0.00,VWS V14.01,2013-06-02 18:53:00,
2013-06-02 14:58:00,76.2,70.7,30.01,NE,47,0.0,1.0,83,0.00,,OVC075,0.00,VWS V14.01,2013-06-02 18:58:00,
2013-06-02 15:03:00,76.3,70.1,30.01,NNW,347,1.0,2.0,81,0.00,,OVC060,0.00,VWS V14.01,2013-06-02 19:03:00,
2013-06-02 15:08:00,76.4,70.5,30.01,NNE,29,1.0,3.0,82,0.00,,OVC060,0.00,VWS V14.01,2013-06-02 19:08:00,
2013-06-02 15:13:00,76.6,70.0,30.01,NE,50,2.0,4.0,80,0.00,,OVC060,0.00,VWS V14.01,2013-06-02 19:13:00,
2013-06-02 15:18:00,76.5,69.9,30.00,NNE,25,2.0,3.0,80,0.00,,OVC060,0.00,VWS V14.01,2013-06-02 19:18:00,
2013-06-02 15:23:00,76.2,69.9,30.00,ENE,61,2.0,2.0,81,0.00,,-RA,0.00,VWS V14.01,2013-06-02 19:23:00,
2013-06-02 15:28:00,76.5,70.2,29.99,NNE,20,1.0,2.0,81,0.00,,-RA,0.00,VWS V14.01,2013-06-02 19:28:00,
2013-06-02 15:33:00,76.9,70.6,30.00,NW,314,0.0,1.0,81,0.00,,-RA,0.00,VWS V14.01,2013-06-02 19:33:00,
2013-06-02 15:38:00,77.1,70.1,29.99,WNW,297,0.0,1.0,79,0.00,,-RA,0.00,VWS V14.01,2013-06-02 19:38:00,
2013-06-02 15:43:00,77.2,70.6,29.99,WNW,302,1.0,1.0,80,0.00,,OVC035,0.00,VWS V14.01,2013-06-02 19:43:00,
2013-06-02 15:48:00,77.2,70.6,29.99,WNW,288,1.0,1.0,80,0.00,,OVC035,0.00,VWS V14.01,2013-06-02 19:48:00,
2013-06-02 15:53:00,76.7,70.1,29.99,NNE,32,0.0,0.0,80,0.00,,OVC035,0.00,VWS V14.01,2013-06-02 19:53:00,
2013-06-02 15:58:00,76.4,70.1,29.99,WNW,300,1.0,2.0,81,0.00,,OVC035,0.00,VWS V14.01,2013-06-02 19:58:00,
2013-06-02 16:03:00,76.1,70.2,29.99,NW,326,1.0,2.0,82,0.00,,OVC015,0.00,VWS V14.01,2013-06-02 20:03:00,
2013-06-02 16:08:00,75.9,70.4,29.99,NW,311,2.0,3.0,83,0.00,,OVC015,0.00,VWS V14.01,2013-06-02 20:08:00,
2013-06-02 16:13:00,75.3,69.4,29.99,WNW,293,4.0,11.0,82,0.00,,OVC015,0.00,VWS V14.01,2013-06-02 20:13:00,
2013-06-02 16:18:00,74.3,68.4,29.99,NNW,330,1.0,4.0,82,0.00,,OVC015,0.00,VWS V14.01,2013-06-02 20:18:00,
2013-06-02 16:23:00,73.7,67.9,29.99,WNW,291,0.0,1.0,82,0.00,,-RA,0.00,VWS V14.01,2013-06-02 20:23:00,
2013-06-02 16:28:00,72.8,68.0,30.00,WNW,287,0.0,1.0,85,0.11,,-RA,0.11,VWS V14.01,2013-06-02 20:28:00,
2013-06-02 16:33:00,71.4,68.0,29.99,NW,321,1.0,2.0,89,0.27,,-RA,0.27,VWS V14.01,2013-06-02 20:33:00,
2013-06-02 16:38:00,70.2,66.5,29.99,NE,49,2.0,3.0,88,0.28,,-RA,0.28,VWS V14.01,2013-06-02 20:38:00,
2013-06-02 16:43:00,69.2,66.2,30.00,NW,319,2.0,2.0,90,0.28,,-RA,0.28,VWS V14.01,2013-06-02 20:43:00,
2013-06-02 16:48:00,68.9,66.5,29.99,North,11,1.0,1.0,92,0.28,,-RA,0.28,VWS V14.01,2013-06-02 20:48:00,
2013-06-02 16:53:00,68.7,66.6,29.99,NNW,336,0.0,1.0,93,0.28,,-RA,0.28,VWS V14.01,2013-06-02 20:53:00,
2013-06-02 16:58:00,68.3,66.2,29.99,SSE,153,0.0,0.0,93,0.28,,-RA,0.28,VWS V14.01,2013-06-02 20:58:00,
2013-06-02 17:03:00,68.2,66.4,30.00,SSE,162,0.0,0.0,94,0.29,,RA,0.29,VWS V14.01,2013-06-02 21:03:00,
2013-06-02 17:08:00,68.2,66.7,30.00,NE,43,0.0,0.0,95,0.31,,RA,0.31,VWS V14.01,2013-06-02 21:08:00,
2013-06-02 17:13:00,67.9,66.1,30.00,NNE,25,0.0,2.0,94,0.34,,RA,0.34,VWS V14.01,2013-06-02 21:13:00,
2013-06-02 17:18:00,67.6,65.8,30.01,NNE,21,1.0,3.0,94,0.37,,RA,0.37,VWS V14.01,2013-06-02 21:18:00,
2013-06-02 17:23:00,67.3,65.5,30.00,NNW,330,0.0,0.0,94,0.56,, +RA,0.56,VWS V14.01,2013-06-02 21:23:00,
2013-06-02 17:28:00,67.0,65.2,30.01,WSW,242,0.0,0.0,94,0.59,, +RA,0.69,VWS V14.01,2013-06-02 21:28:00,
2013-06-02 17:33:00,66.7,65.2,30.01,WNW,293,1.0,4.0,95,0.57,, +RA,0.84,VWS V14.01,2013-06-02 21:33:00,
2013-06-02 17:38:00,66.5,65.0,30.01,NE,38,2.0,3.0,95,0.79,, +RA,1.07,VWS V14.01,2013-06-02 21:38:00,
2013-06-02 17:43:00,66.2,64.7,30.01,South,184,0.0,0.0,95,0.86,, +RA,1.14,VWS V14.01,2013-06-02 21:43:00,
2013-06-02 17:48:00,66.1,64.9,30.00,South,180,0.0,0.0,96,0.97,, +RA,1.25,VWS V14.01,2013-06-02 21:48:00,
2013-06-02 17:53:00,66.1,64.9,30.00,South,179,0.0,0.0,96,1.05,, +RA,1.33,VWS V14.01,2013-06-02 21:53:00,
2013-06-02 17:58:00,66.0,64.8,30.01,South,172,0.0,1.0,96,1.09,, +RA,1.37,VWS V14.01,2013-06-02 21:58:00,
2013-06-02 18:03:00,65.9,64.7,30.00,NE,36,0.0,2.0,96,1.13,,-RA,1.42,VWS V14.01,2013-06-02 22:03:00,
2013-06-02 18:08:00,65.9,65.0,30.00,South,173,4.0,5.0,97,1.17,,-RA,1.48,VWS V14.01,2013-06-02 22:08:00,
2013-06-02 18:13:00,65.9,65.0,30.00,SSE,151,2.0,4.0,97,1.21,,-RA,1.55,VWS V14.01,2013-06-02 22:13:00,
2013-06-02 18:18:00,65.8,64.9,30.00,SE,146,3.0,4.0,97,1.21,,-RA,1.58,VWS V14.01,2013-06-02 22:18:00,
2013-06-02 18:23:00,65.9,65.0,30.00,SSE,160,7.0,7.0,97,1.04,,RA,1.60,VWS V14.01,2013-06-02 22:23:00,
2013-06-02 18:28:00,66.0,65.1,30.00,SE,134,0.0,1.0,97,0.94,,RA,1.63,VWS V14.01,2013-06-02 22:28:00,
2013-06-02 18:33:00,66.0,65.1,29.99,SE,136,1.0,4.0,97,0.82,,RA,1.66,VWS V14.01,2013-06-02 22:33:00,
2013-06-02 18:38:00,66.2,65.3,29.99,SW,222,2.0,3.0,97,0.60,,RA,1.67,VWS V14.01,2013-06-02 22:38:00,
2013-06-02 18:43:00,66.7,66.1,29.99,SSE,151,0.0,2.0,98,0.53,,OVC090,1.67,VWS V14.01,2013-06-02 22:43:00,
2013-06-02 18:48:00,67.0,66.1,29.99,WSW,248,1.0,1.0,97,0.42,,OVC090,1.67,VWS V14.01,2013-06-02 22:48:00,
2013-06-02 18:53:00,67.2,66.3,29.99,WNW,300,0.0,1.0,97,0.34,,OVC090,1.67,VWS V14.01,2013-06-02 22:53:00,
2013-06-02 18:58:00,67.4,66.5,29.99,NNW,347,0.0,0.0,97,0.30,,OVC090,1.67,VWS V14.01,2013-06-02 22:58:00,
2013-06-02 19:03:00,67.5,66.6,29.98,NNE,14,3.0,3.0,97,0.25,,-RA,1.67,VWS V14.01,2013-06-02 23:03:00,
2013-06-02 19:08:00,67.4,66.5,29.98,NE,41,1.0,2.0,97,0.20,,-RA,1.68,VWS V14.01,2013-06-02 23:08:00,
2013-06-02 19:13:00,67.5,66.6,30.00,WSW,246,1.0,2.0,97,0.13,,-RA,1.68,VWS V14.01,2013-06-02 23:13:00,
2013-06-02 19:18:00,67.5,66.6,30.00,WSW,245,0.0,0.0,97,0.10,,-RA,1.68,VWS V14.01,2013-06-02 23:18:00,
2013-06-02 19:23:00,67.5,66.6,30.00,WSW,246,0.0,0.0,97,0.08,,-RA,1.68,VWS V14.01,2013-06-02 23:23:00,
2013-06-02 19:28:00,67.6,66.7,30.00,West,273,0.0,0.0,97,0.05,,-RA,1.68,VWS V14.01,2013-06-02 23:28:00,
2013-06-02 19:33:00,67.3,66.4,30.01,WNW,290,1.0,1.0,97,0.02,,-RA,1.68,VWS V14.01,2013-06-02 23:33:00,
2013-06-02 19:38:00,67.2,66.3,30.01,WNW,302,0.0,0.0,97,0.01,,-RA,1.68,VWS V14.01,2013-06-02 23:38:00,
2013-06-02 19:43:00,67.1,66.2,30.01,NNW,336,1.0,2.0,97,0.01,,-RA,1.68,VWS V14.01,2013-06-02 23:43:00,
2013-06-02 19:48:00,67.1,66.2,30.01,NNW,340,0.0,1.0,97,0.01,,-RA,1.68,VWS V14.01,2013-06-02 23:48:00,
2013-06-02 19:53:00,67.0,66.1,30.00,NW,319,1.0,1.0,97,0.01,,-RA,1.68,VWS V14.01,2013-06-02 23:53:00,
2013-06-02 19:58:00,66.9,66.0,30.00,NW,319,0.0,0.0,97,0.01,,-RA,1.68,VWS V14.01,2013-06-02 23:58:00,
2013-06-02 20:03:00,66.8,65.9,30.01,NW,311,0.0,0.0,97,0.01,,-RA,1.68,VWS V14.01,2013-06-03 00:03:00,
2013-06-02 20:08:00,66.7,65.8,30.01,NW,307,0.0,1.0,97,0.00,,-RA,1.68,VWS V14.01,2013-06-03 00:08:00,
2013-06-02 20:13:00,66.7,65.8,30.01,NW,307,0.0,0.0,97,0.00,,-RA,1.68,VWS V14.01,2013-06-03 00:13:00,
2013-06-02 20:18:00,66.8,65.9,30.00,NE,36,0.0,0.0,97,0.00,,-RA,1.68,VWS V14.01,2013-06-03 00:18:00,
2013-06-02 20:23:00,66.7,65.8,30.00,NE,47,0.0,0.0,97,0.01,,-RA,1.69,VWS V14.01,2013-06-03 00:23:00,
2013-06-02 20:28:00,66.7,65.8,30.00,NNE,27,0.0,0.0,97,0.01,,-RA,1.69,VWS V14.01,2013-06-03 00:28:00,
2013-06-02 20:33:00,66.6,65.7,30.00,NNW,333,1.0,1.0,97,0.01,,-RA,1.69,VWS V14.01,2013-06-03 00:33:00,
2013-06-02 20:38:00,66.6,65.7,30.00,NW,311,1.0,1.0,97,0.01,,-RA,1.69,VWS V14.01,2013-06-03 00:38:00,
2013-06-02 20:43:00,66.5,65.6,30.00,NW,311,0.0,0.0,97,0.01,,-RA,1.69,VWS V14.01,2013-06-03 00:43:00,
2013-06-02 20:48:00,66.5,65.6,30.00,NW,311,0.0,0.0,97,0.01,,-RA,1.69,VWS V14.01,2013-06-03 00:48:00,
2013-06-02 20:53:00,66.5,65.6,30.00,NW,311,0.0,0.0,97,0.01,,-RA,1.69,VWS V14.01,2013-06-03 00:53:00,
2013-06-02 20:58:00,66.6,66.0,30.00,NW,311,0.0,0.0,98,0.01,,-RA,1.69,VWS V14.01,2013-06-03 00:58:00,
2013-06-02 21:03:00,66.6,66.0,30.00,NW,310,0.0,0.0,98,0.01,,OVC110,1.69,VWS V14.01,2013-06-03 01:03:00,
2013-06-02 21:08:00,66.7,66.1,29.99,NE,41,0.0,2.0,98,0.01,,OVC110,1.69,VWS V14.01,2013-06-03 01:08:00,
2013-06-02 21:13:00,66.5,65.6,29.99,NE,41,0.0,0.0,97,0.01,,OVC110,1.69,VWS V14.01,2013-06-03 01:13:00,
2013-06-02 21:18:00,66.5,65.6,30.00,NE,41,0.0,0.0,97,0.01,,OVC110,1.69,VWS V14.01,2013-06-03 01:18:00,
2013-06-02 21:23:00,66.6,66.0,29.99,NE,41,0.0,0.0,98,0.00,, +RA,1.69,VWS V14.01,2013-06-03 01:23:00,
2013-06-02 21:28:00,66.5,65.9,29.99,NE,41,0.0,0.0,98,0.00,, +RA,1.69,VWS V14.01,2013-06-03 01:28:00,
2013-06-02 21:33:00,66.5,65.9,29.99,SSE,148,0.0,1.0,98,0.00,, +RA,1.69,VWS V14.01,2013-06-03 01:33:00,
2013-06-02 21:38:00,66.4,65.8,29.99,SSE,148,0.0,0.0,98,0.00,, +RA,1.69,VWS V14.01,2013-06-03 01:38:00,
2013-06-02 21:43:00,66.4,65.8,29.99,SSE,148,0.0,0.0,98,0.00,,-RA,1.69,VWS V14.01,2013-06-03 01:43:00,
2013-06-02 21:48:00,66.4,65.8,29.99,SSE,148,0.0,0.0,98,0.00,,-RA,1.69,VWS V14.01,2013-06-03 01:48:00,
2013-06-02 21:53:00,66.4,65.8,29.99,SSE,148,0.0,0.0,98,0.00,,-RA,1.69,VWS V14.01,2013-06-03 01:53:00,
2013-06-02 21:58:00,66.5,65.9,29.99,East,93,0.0,0.0,98,0.00,,-RA,1.69,VWS V14.01,2013-06-03 01:58:00,
2013-06-02 22:03:00,66.4,65.8,29.99,East,93,0.0,0.0,98,0.00,,-RA,1.69,VWS V14.01,2013-06-03 02:03:00,
2013-06-02 22:08:00,66.3,65.7,29.99,East,93,0.0,0.0,98,0.00,,-RA,1.69,VWS V14.01,2013-06-03 02:08:00,
2013-06-02 22:13:00,66.3,65.7,29.99,East,93,0.0,0.0,98,0.00,,-RA,1.69,VWS V14.01,2013-06-03 02:13:00,
2013-06-02 22:18:00,66.3,65.7,29.98,East,93,0.0,0.0,98,0.00,,-RA,1.69,VWS V14.01,2013-06-03 02:18:00,
2013-06-02 22:23:00,66.3,65.7,29.99,East,93,0.0,0.0,98,0.00,,OVC100,1.69,VWS V14.01,2013-06-03 02:23:00,
2013-06-02 22:28:00,66.3,65.7,29.99,East,94,0.0,0.0,98,0.00,,OVC100,1.69,VWS V14.01,2013-06-03 02:28:00,
2013-06-02 22:33:00,66.2,65.6,29.99,East,93,0.0,0.0,98,0.00,,OVC100,1.69,VWS V14.01,2013-06-03 02:33:00,
2013-06-02 22:38:00,66.2,65.6,30.00,East,94,0.0,0.0,98,0.00,,OVC100,1.69,VWS V14.01,2013-06-03 02:38:00,
2013-06-02 22:43:00,66.1,65.5,30.00,East,89,1.0,1.0,98,0.00,,,1.69,VWS V14.01,2013-06-03 02:43:00,
2013-06-02 22:48:00,66.0,65.4,30.00,East,89,0.0,0.0,98,0.00,,,1.69,VWS V14.01,2013-06-03 02:48:00,
2013-06-02 22:53:00,66.1,65.5,30.00,East,89,0.0,0.0,98,0.00,,,1.69,VWS V14.01,2013-06-03 02:53:00,
2013-06-02 22:58:00,66.2,65.6,30.00,East,89,0.0,0.0,98,0.00,,,1.69,VWS V14.01,2013-06-03 02:58:00,
2013-06-02 23:03:00,66.3,65.7,30.00,East,89,0.0,0.0,98,0.00,,,1.69,VWS V14.01,2013-06-03 03:03:00,
2013-06-02 23:08:00,66.2,65.6,30.00,East,86,0.0,0.0,98,0.00,,,1.69,VWS V14.01,2013-06-03 03:08:00,
2013-06-02 23:13:00,66.2,65.6,30.00,East,86,0.0,0.0,98,0.00,,,1.69,VWS V14.01,2013-06-03 03:13:00,
2013-06-02 23:18:00,66.1,65.5,30.00,NE,45,0.0,0.0,98,0.00,,,1.69,VWS V14.01,2013-06-03 03:18:00,
2013-06-02 23:23:00,66.1,65.5,30.00,NE,45,0.0,1.0,98,0.00,,,1.69,VWS V14.01,2013-06-03 03:23:00,
2013-06-02 23:28:00,66.1,65.5,30.00,NE,45,0.0,0.0,98,0.00,,,1.69,VWS V14.01,2013-06-03 03:28:00,
2013-06-02 23:33:00,66.2,65.6,30.00,NE,46,0.0,0.0,98,0.00,,,1.69,VWS V14.01,2013-06-03 03:33:00,
2013-06-02 23:38:00,66.3,65.7,30.00,NE,45,0.0,1.0,98,0.00,,,1.69,VWS V14.01,2013-06-03 03:38:00,
2013-06-02 23:43:00,66.2,65.6,30.00,NE,46,0.0,1.0,98,0.00,,,1.69,VWS V14.01,2013-06-03 03:43:00,
2013-06-02 23:48:00,66.2,65.6,30.00,NE,45,0.0,0.0,98,0.00,,,1.69,VWS V14.01,2013-06-03 03:48:00,
2013-06-02 23:53:00,66.3,65.7,30.00,NE,45,0.0,0.0,98,0.00,,,1.69,VWS V14.01,2013-06-03 03:53:00,
2013-06-02 23:58:00,66.3,65.7,29.99,NE,45,0.0,1.0,98,0.00,,,1.69,VWS V14.01,2013-06-03 03:58:00,